GW4575 Weather Reports


Display with metric or nautical units.
time (UTC)temp
F
wind
direction
speed
MPH
gust
MPH
rain 1hr
in
rain 24hr
in
rain mn
in
humidity
%
barometer
mb
20260509042407 50 77 3.0 4.0 0.00 0.00 0.00 49 1001.9
20260509041903 50 171 2.0 7.0 0.00 0.00 0.00 49 1001.9
20260509041401 50 127 3.0 6.0 0.00 0.00 0.00 49 1002.0
20260509040859 50 115 3.0 7.0 0.00 0.00 0.00 50 1002.2
20260509040356 50 189 1.0 4.0 0.00 0.00 0.00 50 1002.3
20260509035853 50 128 2.0 3.0 0.00 0.00 0.00 50 1002.4
20260509035350 51 99 4.0 7.0 0.00 0.00 0.00 49 1002.7
20260509034846 51 158 2.0 7.0 0.00 0.00 0.00 49 1002.7
20260509034344 50 103 5.0 7.0 0.00 0.00 0.00 49 1002.6
20260509033841 51 142 2.0 8.0 0.00 0.00 0.00 50 1002.8
20260509033338 51 206 3.0 4.0 0.00 0.00 0.00 47 1002.7
20260509032835 51 239 0.0 2.0 0.00 0.00 0.00 45 1002.9
20260509032332 51 242 0.0 2.0 0.00 0.00 0.00 45 1002.7
20260509031830 51 251 0.0 1.0 0.00 0.00 0.00 47 1003.0
20260509031327 51 243 0.0 0.0 0.00 0.00 0.00 46 1003.1
20260509030825 52 160 0.0 1.0 0.00 0.00 0.00 44 1003.1
20260509030322 51 195 0.0 2.0 0.00 0.00 0.00 47 1003.0
20260509025819 52 50 1.0 2.0 0.00 0.00 0.00 45 1003.2
20260509025314 51 111 1.0 2.0 0.00 0.00 0.00 46 1003.3
20260509024810 51 193 0.0 1.0 0.00 0.00 0.00 48 1003.5
20260509024306 51 260 0.0 0.0 0.00 0.00 0.00 51 1003.6
20260509023803 51 240 0.0 1.0 0.00 0.00 0.00 48 1003.4
20260509023301 51 236 0.0 0.0 0.00 0.00 0.00 49 1003.3
20260509022756 52 238 0.0 0.0 0.00 0.00 0.00 46 1003.5
20260509022255 52 249 0.0 0.0 0.00 0.00 0.00 46 1003.5
20260509021751 53 158 0.0 0.0 0.00 0.00 0.00 44 1003.5
20260509021249 53 66 0.0 0.0 0.00 0.00 0.00 45 1003.6
20260509020746 53 223 1.0 2.0 0.00 0.00 0.00 43 1003.9
20260509020244 53 248 0.0 1.0 0.00 0.00 0.00 44 1003.9
20260509015741 53 170 1.0 2.0 0.00 0.00 0.00 44 1003.9
20260509015239 52 232 0.0 1.0 0.00 0.00 0.00 44 1003.7
20260509014735 52 237 0.0 2.0 0.00 0.00 0.00 45 1004.0
20260509014233 52 203 0.0 2.0 0.00 0.00 0.00 45 1003.9
20260509013729 52 193 0.0 1.0 0.00 0.00 0.00 45 1003.8
20260509013225 52 219 1.0 3.0 0.00 0.00 0.00 45 1003.8
20260509012722 51 234 0.0 1.0 0.00 0.00 0.00 47 1004.0
20260509012218 51 239 0.0 0.0 0.00 0.00 0.00 47 1003.8
20260509011716 51 251 0.0 0.0 0.00 0.00 0.00 47 1003.8
20260509011214 52 267 0.0 0.0 0.00 0.00 0.00 47 1004.0
20260509010711 52 259 0.0 0.0 0.00 0.00 0.00 46 1003.9
20260509010207 52 274 0.0 0.0 0.00 0.00 0.00 44 1003.8
20260509005705 52 274 0.0 0.0 0.00 0.00 0.00 43 1003.7
20260509005202 53 276 0.0 0.0 0.00 0.00 0.00 43 1003.8
20260509004701 53 286 0.0 0.0 0.00 0.00 0.00 41 1003.9
20260509004159 53 246 0.0 0.0 0.00 0.00 0.00 42 1003.7
20260509003658 54 235 0.0 0.0 0.00 0.00 0.00 41 1003.8
20260509003155 54 232 0.0 0.0 0.00 0.00 0.00 41 1003.7
20260509002652 54 192 0.0 1.0 0.00 0.00 0.00 41 1003.9
20260509002149 54 236 0.0 1.0 0.00 0.00 0.00 40 1004.0
20260509001647 54 244 0.0 1.0 0.00 0.00 0.00 39 1004.0
20260509001142 54 197 1.0 2.0 0.00 0.00 0.00 39 1004.0
20260509000641 54 256 0.0 2.0 0.00 0.00 0.00 39 1004.1
20260509000137 55 207 1.0 2.0 0.00 0.00 0.00 39 1004.2
20260508235635 55 249 0.0 0.0 0.00 0.00 0.00 39 1004.4
20260508235131 55 208 0.0 1.0 0.00 0.00 0.00 38 1004.3
20260508234628 55 200 1.0 2.0 0.00 0.00 0.00 37 1004.4
20260508234125 54 229 1.0 1.0 0.00 0.00 0.00 36 1004.8
20260508233624 54 239 0.0 1.0 0.00 0.00 0.00 37 1004.9
20260508233121 54 349 4.0 4.0 0.00 0.00 0.00 37 1005.0
20260508232618 54 239 0.0 2.0 0.00 0.00 0.00 36 1005.2
20260508232115 54 273 1.0 2.0 0.00 0.00 0.00 36 1005.3
20260508231613 54 273 1.0 4.0 0.00 0.00 0.00 36 1005.3
20260508231109 54 273 2.0 2.0 0.00 0.00 0.00 37 1005.2
20260508230606 54 284 1.0 3.0 0.00 0.00 0.00 36 1005.1
20260508225600 55 301 1.0 3.0 0.00 0.00 0.00 37 1005.1
20260508225056 55 256 2.0 4.0 0.00 0.00 0.00 35 1005.3
20260508224555 55 292 3.0 4.0 0.00 0.00 0.00 35 1005.3
20260508224051 55 263 2.0 3.0 0.00 0.00 0.00 35 1005.3
20260508223549 55 283 3.0 4.0 0.00 0.00 0.00 35 1005.3
20260508223046 55 273 2.0 4.0 0.00 0.00 0.00 35 1005.3
20260508222544 57 296 3.0 4.0 0.00 0.00 0.00 34 1005.4
20260508222040 56 286 1.0 7.0 0.00 0.00 0.00 35 1005.4
20260508221537 56 302 5.0 7.0 0.00 0.00 0.00 35 1005.6
20260508221032 56 275 4.0 4.0 0.00 0.00 0.00 35 1005.4
20260508220530 56 298 4.0 7.0 0.00 0.00 0.00 34 1005.5
20260508220026 57 309 4.0 7.0 0.00 0.00 0.00 34 1005.7
20260508215523 59 301 4.0 10.0 0.00 0.00 0.00 34 1005.6
20260508215020 58 287 5.0 8.0 0.00 0.00 0.00 34 1005.5
20260508214517 58 288 3.0 7.0 0.00 0.00 0.00 33 1005.6
20260508214013 57 260 4.0 6.0 0.00 0.00 0.00 34 1005.6
20260508213511 56 267 3.0 7.0 0.00 0.00 0.00 35 1005.6
20260508213006 56 300 8.0 10.0 0.00 0.00 0.00 34 1005.6
20260508212503 55 280 4.0 8.0 0.00 0.00 0.00 34 1005.5
20260508211959 55 268 5.0 8.0 0.00 0.00 0.00 34 1005.5
20260508211455 55 296 5.0 7.0 0.00 0.00 0.00 35 1005.8
20260508210952 55 273 4.0 9.0 0.00 0.00 0.00 34 1005.6
20260508210448 55 254 2.0 7.0 0.00 0.00 0.00 35 1005.9
20260508205944 55 269 6.0 9.0 0.00 0.00 0.00 35 1005.8
20260508205442 55 283 2.0 4.0 0.00 0.00 0.00 35 1005.8
20260508204938 56 302 3.0 7.0 0.00 0.00 0.00 36 1006.0
20260508204436 55 289 4.0 6.0 0.00 0.00 0.00 34 1006.0
20260508203931 54 270 3.0 6.0 0.00 0.00 0.00 35 1006.2
20260508203427 54 254 3.0 9.0 0.00 0.00 0.00 34 1006.2
20260508202923 54 291 3.0 6.0 0.00 0.00 0.00 35 1006.3
20260508202421 54 271 4.0 4.0 0.00 0.00 0.00 35 1006.4
20260508201918 54 249 2.0 8.0 0.00 0.00 0.00 34 1006.4
20260508201414 54 266 5.0 9.0 0.00 0.00 0.00 35 1006.4
20260508200911 54 284 4.0 9.0 0.00 0.00 0.00 35 1006.3
20260508200408 54 300 5.0 9.0 0.00 0.00 0.00 34 1006.5
20260508195903 54 274 6.0 7.0 0.00 0.00 0.00 34 1006.6
20260508195401 54 297 2.0 14.0 0.00 0.00 0.00 37 1006.5
20260508194856 55 264 3.0 7.0 0.00 0.00 0.00 34 1006.6
20260508194354 54 263 3.0 8.0 0.00 0.00 0.00 34 1006.8
20260508193851 54 258 4.0 14.0 0.00 0.00 0.00 33 1006.9
20260508193347 54 265 9.0 13.0 0.00 0.00 0.00 33 1006.8
20260508192844 55 257 9.0 17.0 0.00 0.00 0.00 33 1006.8
20260508192341 55 301 8.0 10.0 0.00 0.00 0.00 33 1006.7
20260508191838 55 289 9.0 14.0 0.00 0.00 0.00 32 1006.9
20260508191335 55 328 4.0 13.0 0.00 0.00 0.00 34 1006.9
20260508190832 55 304 6.0 13.0 0.00 0.00 0.00 34 1006.8
20260508190329 56 306 8.0 15.0 0.00 0.00 0.00 34 1006.7
20260508185825 56 282 7.0 11.0 0.00 0.00 0.00 32 1006.8
20260508185323 55 277 7.0 9.0 0.00 0.00 0.00 34 1006.9
20260508184820 54 288 6.0 9.0 0.00 0.00 0.00 35 1006.8
20260508184317 55 250 6.0 13.0 0.00 0.00 0.00 33 1006.8
20260508183814 57 273 5.0 9.0 0.00 0.00 0.00 32 1007.0
20260508183310 54 257 9.0 15.0 0.00 0.00 0.00 34 1007.1
20260508182806 54 265 9.0 14.0 0.00 0.00 0.00 35 1007.3
20260508182306 54 257 4.0 8.0 0.00 0.00 0.00 35 1007.2
20260508181759 53 293 7.0 11.0 0.00 0.00 0.00 36 1007.4
20260508181256 53 266 4.0 15.0 0.00 0.00 0.00 36 1007.5
20260508180753 53 239 6.0 9.0 0.00 0.00 0.00 34 1007.3
20260508180250 56 284 8.0 11.0 0.00 0.00 0.00 34 1007.5
20260508175746 53 261 4.0 9.0 0.00 0.00 0.00 36 1007.4
20260508175243 53 305 5.0 15.0 0.00 0.00 0.00 35 1007.5
20260508174741 52 298 4.0 11.0 0.00 0.00 0.00 36 1007.7
20260508174238 54 299 5.0 8.0 0.00 0.00 0.00 34 1007.6
20260508173734 54 276 9.0 13.0 0.00 0.00 0.00 34 1007.8
20260508173230 54 284 11.0 15.0 0.00 0.00 0.00 34 1007.6
20260508172727 53 276 5.0 11.0 0.00 0.00 0.00 35 1007.5
20260508172224 52 317 5.0 11.0 0.00 0.00 0.00 38 1007.8
20260508171720 52 327 6.0 10.0 0.00 0.00 0.00 34 1007.8
20260508171217 53 255 9.0 14.0 0.00 0.00 0.00 36 1007.9
20260508170714 53 288 8.0 11.0 0.00 0.00 0.00 34 1007.8
20260508170211 53 299 6.0 11.0 0.00 0.00 0.00 36 1007.6
20260508165708 54 232 6.0 15.0 0.00 0.00 0.00 35 1007.7
20260508165206 53 286 7.0 9.0 0.00 0.00 0.00 35 1007.8
20260508164702 53 265 7.0 10.0 0.00 0.00 0.00 35 1007.8
20260508164159 53 220 10.0 11.0 0.00 0.00 0.00 35 1007.9
20260508163656 54 282 6.0 11.0 0.00 0.00 0.00 35 1007.8
20260508163153 53 275 6.0 8.0 0.00 0.00 0.00 35 1007.9
20260508162649 54 258 6.0 11.0 0.00 0.00 0.00 36 1007.8
20260508162146 53 302 6.0 10.0 0.00 0.00 0.00 37 1007.8
20260508161643 53 228 4.0 6.0 0.00 0.00 0.00 35 1008.3
20260508161141 53 285 3.0 11.0 0.00 0.00 0.00 36 1008.0
20260508160639 53 247 2.0 8.0 0.00 0.00 0.00 39 1008.0
20260508160136 53 247 9.0 10.0 0.00 0.00 0.00 38 1008.2
20260508155634 52 314 4.0 13.0 0.00 0.00 0.00 39 1008.0
20260508155130 52 315 10.0 13.0 0.00 0.00 0.00 36 1008.3
20260508154627 52 335 10.0 14.0 0.00 0.00 0.00 37 1008.3
20260508154118 53 278 7.0 8.0 0.00 0.00 0.00 38 1008.4
20260508153615 52 247 9.0 13.0 0.00 0.00 0.00 36 1008.4
20260508153112 53 246 4.0 10.0 0.00 0.00 0.00 38 1008.4
20260508152609 52 275 6.0 13.0 0.00 0.00 0.00 36 1008.4
20260508152103 53 300 10.0 18.0 0.00 0.00 0.00 36 1008.3
20260508151600 54 297 6.0 7.0 0.00 0.00 0.00 36 1008.3
20260508151057 53 323 5.0 7.0 0.00 0.00 0.00 36 1008.4
20260508150554 52 275 9.0 13.0 0.00 0.00 0.00 36 1008.4
20260508150050 52 318 4.0 7.0 0.00 0.00 0.00 38 1008.4
20260508145547 51 248 3.0 13.0 0.00 0.00 0.00 36 1008.7
20260508145044 52 297 7.0 16.0 0.00 0.00 0.00 37 1008.5
20260508144542 52 267 3.0 9.0 0.00 0.00 0.00 38 1008.3
20260508144039 51 270 6.0 9.0 0.00 0.00 0.00 39 1008.5
20260508143536 51 297 4.0 9.0 0.00 0.00 0.00 40 1008.6
20260508143032 51 212 3.0 9.0 0.00 0.00 0.00 40 1008.6
20260508142530 51 256 4.0 8.0 0.00 0.00 0.00 39 1008.6
20260508142026 51 253 3.0 3.0 0.00 0.00 0.00 44 1008.7
20260508141522 50 255 4.0 8.0 0.00 0.00 0.00 41 1008.7
20260508141021 50 300 4.0 6.0 0.00 0.00 0.00 45 1008.7
20260508140518 49 260 1.0 4.0 0.00 0.00 0.00 53 1008.8
20260508140014 49 229 4.0 7.0 0.00 0.00 0.00 49 1008.9
20260508135509 50 285 4.0 4.0 0.00 0.00 0.00 52 1008.7
20260508135006 48 302 4.0 4.0 0.00 0.00 0.00 51 1008.7
20260508134503 48 212 1.0 2.0 0.00 0.00 0.00 56 1008.9
20260508134000 48 259 1.0 2.0 0.00 0.00 0.00 57 1008.9
20260508133457 47 224 0.0 3.0 0.00 0.00 0.00 56 1009.0
20260508132954 47 240 0.0 2.0 0.00 0.00 0.00 59 1009.0
20260508132452 46 202 0.0 2.0 0.00 0.00 0.00 60 1008.9
20260508131948 46 261 1.0 2.0 0.00 0.00 0.00 61 1009.0
20260508131444 46 193 1.0 2.0 0.00 0.00 0.00 61 1009.0
20260508130941 46 221 0.0 1.0 0.00 0.00 0.00 61 1009.0
20260508130438 46 198 0.0 0.0 0.00 0.00 0.00 65 1009.1
20260508125933 45 201 0.0 1.0 0.00 0.00 0.00 63 1009.1
20260508125430 45 220 0.0 2.0 0.00 0.00 0.00 63 1009.1
20260508124928 44 172 1.0 2.0 0.00 0.00 0.00 63 1009.2
20260508124425 44 167 2.0 2.0 0.00 0.00 0.00 64 1009.2
20260508123923 42 156 2.0 2.0 0.00 0.00 0.00 66 1009.2
20260508123421 42 201 2.0 2.0 0.00 0.00 0.00 66 1009.2
20260508122917 42 189 1.0 2.0 0.00 0.00 0.00 67 1009.3
20260508122415 42 239 1.0 2.0 0.00 0.00 0.00 65 1009.3
20260508121912 41 192 1.0 1.0 0.00 0.00 0.00 65 1009.3
20260508121410 40 223 0.0 2.0 0.00 0.00 0.00 67 1009.3
20260508120907 40 185 1.0 2.0 0.00 0.00 0.00 67 1009.3
20260508120404 40 188 2.0 2.0 0.00 0.00 0.00 65 1009.3
20260508115902 39 189 0.0 2.0 0.00 0.00 0.00 66 1009.2
20260508115400 39 128 0.0 2.0 0.00 0.00 0.00 70 1009.1
20260508114856 38 144 0.0 0.0 0.00 0.00 0.00 71 1009.2
20260508114353 37 194 0.0 0.0 0.00 0.00 0.00 72 1009.2
20260508113849 36 199 0.0 0.0 0.00 0.00 0.00 76 1009.1
20260508113348 35 219 0.0 0.0 0.00 0.00 0.00 79 1009.2
20260508112844 34 231 0.0 0.0 0.00 0.00 0.00 81 1009.1
20260508112341 33 217 0.0 0.0 0.00 0.00 0.00 83 1008.9
20260508111837 33 214 0.0 0.0 0.00 0.00 0.00 83 1009.2
20260508111334 33 208 0.0 0.0 0.00 0.00 0.00 84 1009.1
20260508110832 32 231 0.0 0.0 0.00 0.00 0.00 85 1009.0
20260508110330 33 220 0.0 0.0 0.00 0.00 0.00 84 1009.2
20260508105829 32 194 0.0 1.0 0.00 0.00 0.00 85 1009.1
20260508105325 33 213 0.0 0.0 0.00 0.00 0.00 84 1009.0
20260508104822 32 232 0.0 0.0 0.00 0.00 0.00 84 1009.1
20260508104320 32 292 0.0 0.0 0.00 0.00 0.00 87 1009.2
20260508103817 32 292 0.0 0.0 0.00 0.00 0.00 87 1009.2
20260508103314 32 293 0.0 0.0 0.00 0.00 0.00 88 1009.4
20260508102812 31 293 0.0 0.0 0.00 0.00 0.00 88 1009.4
20260508102309 31 293 0.0 0.0 0.00 0.00 0.00 88 1009.3
20260508101807 32 293 0.0 0.0 0.00 0.00 0.00 88 1009.4
20260508101304 31 293 0.0 0.0 0.00 0.00 0.00 89 1009.6
20260508100801 31 293 0.0 0.0 0.00 0.00 0.00 91 1009.4
20260508100300 31 293 0.0 0.0 0.00 0.00 0.00 91 1009.4
20260508095755 31 293 0.0 0.0 0.00 0.00 0.00 91 1009.6
20260508095253 31 293 0.0 0.0 0.00 0.00 0.00 91 1009.5
20260508094749 31 293 0.0 0.0 0.00 0.00 0.00 91 1009.6
20260508094247 30 286 1.0 1.0 0.00 0.00 0.00 91 1009.6
20260508093743 31 298 1.0 1.0 0.00 0.00 0.00 91 1009.8
20260508093241 30 259 1.0 1.0 0.00 0.00 0.00 91 1009.7
20260508092738 30 296 0.0 1.0 0.00 0.00 0.00 91 1009.8
20260508092236 31 280 0.0 1.0 0.00 0.00 0.00 90 1009.9
20260508091734 31 211 0.0 0.0 0.00 0.00 0.00 90 1009.7
20260508091231 31 216 0.0 0.0 0.00 0.00 0.00 91 1009.9
20260508090728 31 253 0.0 0.0 0.00 0.00 0.00 91 1009.9
20260508090225 31 307 0.0 1.0 0.00 0.00 0.00 90 1010.0
20260508085721 31 218 0.0 1.0 0.00 0.00 0.00 90 1009.9
20260508085219 31 337 1.0 1.0 0.00 0.00 0.00 91 1010.0
20260508084715 31 256 0.0 0.0 0.00 0.00 0.00 90 1009.9
20260508084212 31 233 0.0 0.0 0.00 0.00 0.00 91 1010.0
20260508083710 31 326 0.0 0.0 0.00 0.00 0.00 92 1010.2
20260508083207 31 324 0.0 0.0 0.00 0.00 0.00 92 1010.1
20260508082701 31 247 0.0 0.0 0.00 0.00 0.00 92 1010.1
20260508082159 31 263 0.0 1.0 0.00 0.00 0.00 91 1010.1
20260508081656 31 322 1.0 1.0 0.00 0.00 0.00 92 1010.1
20260508081153 31 325 1.0 1.0 0.00 0.00 0.00 92 1010.1
20260508080650 31 53 0.0 1.0 0.00 0.00 0.00 92 1010.1
20260508080149 31 321 0.0 0.0 0.00 0.00 0.00 91 1010.1
20260508075645 32 321 1.0 1.0 0.00 0.00 0.00 91 1010.1
20260508075142 32 309 1.0 1.0 0.00 0.00 0.00 91 1010.2
20260508074639 32 35 1.0 2.0 0.00 0.00 0.00 90 1010.2
20260508074136 32 299 0.0 0.0 0.00 0.00 0.00 90 1010.2
20260508073633 32 285 0.0 0.0 0.00 0.00 0.00 90 1010.2
20260508073131 32 312 0.0 0.0 0.00 0.00 0.00 90 1010.4
20260508072626 32 308 0.0 0.0 0.00 0.00 0.00 90 1010.3
20260508072124 32 297 0.0 1.0 0.00 0.00 0.00 90 1010.5
20260508071621 32 304 1.0 1.0 0.00 0.00 0.00 90 1010.4
20260508071120 32 340 1.0 1.0 0.00 0.00 0.00 90 1010.4
20260508070617 32 358 1.0 1.0 0.00 0.00 0.00 90 1010.5
20260508070116 32 288 0.0 0.0 0.00 0.00 0.00 90 1010.5
20260508065612 32 309 0.0 0.0 0.00 0.00 0.00 90 1010.4
20260508065110 32 247 0.0 0.0 0.00 0.00 0.00 90 1010.7
20260508064607 32 243 0.0 0.0 0.00 0.00 0.00 89 1010.4
20260508064106 32 258 0.0 0.0 0.00 0.00 0.00 90 1010.6
20260508063602 32 265 0.0 1.0 0.00 0.00 0.00 90 1010.6
20260508063100 32 208 0.0 0.0 0.00 0.00 0.00 89 1010.4
20260508062557 33 261 0.0 1.0 0.00 0.00 0.00 89 1010.8
20260508062054 33 332 1.0 1.0 0.00 0.00 0.00 89 1010.6
20260508061551 33 242 0.0 0.0 0.00 0.00 0.00 89 1010.7
20260508061048 33 254 0.0 0.0 0.00 0.00 0.00 89 1010.9
20260508060545 33 321 0.0 0.0 0.00 0.00 0.00 89 1010.8
20260508060043 33 252 0.0 0.0 0.00 0.00 0.00 89 1011.0
20260508055538 33 230 0.0 0.0 0.00 0.00 0.00 89 1011.0
20260508055035 33 244 0.0 0.0 0.00 0.00 0.00 89 1011.1
20260508054531 33 273 0.0 0.0 0.00 0.00 0.00 89 1011.2
20260508054029 33 312 1.0 1.0 0.00 0.00 0.00 89 1011.3
20260508053525 33 303 0.0 1.0 0.00 0.00 0.00 88 1011.2
20260508053024 34 200 0.0 1.0 0.00 0.00 0.00 86 1011.3
20260508052516 35 224 0.0 0.0 0.00 0.00 0.00 85 1011.3
20260508052012 35 235 0.0 0.0 0.00 0.00 0.00 85 1011.2
20260508051509 34 229 0.0 2.0 0.00 0.00 0.00 85 1011.2
20260508051003 34 265 0.0 1.0 0.00 0.00 0.00 86 1011.6
20260508050500 35 313 0.0 1.0 0.00 0.00 0.00 85 1011.4
20260508045956 35 228 0.0 1.0 0.00 0.00 0.00 84 1011.4
20260508045454 35 243 0.0 0.0 0.00 0.00 0.00 84 1011.3
20260508044951 35 247 0.0 0.0 0.00 0.00 0.00 84 1011.4
20260508044448 35 249 0.0 0.0 0.00 0.00 0.00 84 1011.1
20260508043943 35 254 0.0 0.0 0.00 0.00 0.00 84 1011.3
20260508043441 36 275 0.0 0.0 0.00 0.00 0.00 83 1011.3
20260508042937 36 255 0.0 0.0 0.00 0.00 0.00 82 1011.4